| time (UTC) | temp C | wind direction | speed KPH | gust KPH | rain 1hr cm | rain 24hr cm | rain mn cm | humidity % | barometer mb |
| 20260510105004 | 21 | 321 | 0.0 | 0.0 | 0.00 | 0.61 | 0.03 | 93 | 1013.2 |
| 20260510104503 | 21 | 321 | 0.0 | 0.0 | 0.00 | 0.61 | 0.03 | 94 | 1013.3 |
| 20260510104004 | 21 | 321 | 0.0 | 0.0 | 0.00 | 0.61 | 0.03 | 94 | 1013.2 |
| 20260510103505 | 21 | 321 | 0.0 | 0.0 | 0.00 | 0.61 | 0.03 | 94 | 1013.2 |
| 20260510103004 | 21 | 321 | 0.0 | 0.0 | 0.00 | 0.61 | 0.03 | 94 | 1013.2 |
| 20260510102503 | 21 | 321 | 0.0 | 0.0 | 0.00 | 0.61 | 0.03 | 94 | 1013.1 |
| 20260510101504 | 21 | 321 | 0.0 | 0.0 | 0.00 | 0.61 | 0.03 | 94 | 1013.0 |
| 20260510101003 | 21 | 321 | 0.0 | 0.0 | 0.00 | 0.61 | 0.03 | 94 | 1013.0 |
| 20260510100504 | 21 | 321 | 0.0 | 0.0 | 0.00 | 0.61 | 0.03 | 93 | 1013.0 |
| 20260510100004 | 21 | 321 | 0.0 | 0.0 | 0.00 | 0.61 | 0.03 | 93 | 1013.0 |
| 20260510095504 | 21 | 321 | 0.0 | 0.0 | 0.00 | 0.61 | 0.03 | 94 | 1012.9 |
| 20260510095005 | 21 | 321 | 0.0 | 0.0 | 0.00 | 0.61 | 0.03 | 94 | 1012.8 |
| 20260510094504 | 21 | 321 | 0.0 | 0.0 | 0.00 | 0.61 | 0.03 | 94 | 1012.7 |
| 20260510094004 | 21 | 321 | 0.0 | 0.0 | 0.00 | 0.61 | 0.03 | 94 | 1012.8 |
| 20260510093504 | 21 | 321 | 0.0 | 0.0 | 0.00 | 0.61 | 0.03 | 94 | 1012.7 |
| 20260510093004 | 21 | 321 | 0.0 | 0.0 | 0.00 | 0.61 | 0.03 | 93 | 1012.7 |
| 20260510092504 | 21 | 321 | 0.0 | 0.0 | 0.00 | 0.61 | 0.03 | 93 | 1012.6 |
| 20260510092004 | 21 | 321 | 0.0 | 0.0 | 0.00 | 0.61 | 0.03 | 93 | 1012.5 |
| 20260510091504 | 21 | 321 | 0.0 | 0.0 | 0.00 | 0.61 | 0.03 | 93 | 1012.4 |
| 20260510090504 | 21 | 321 | 0.0 | 0.0 | 0.00 | 0.61 | 0.03 | 93 | 1012.3 |
| 20260510090004 | 21 | 321 | 0.0 | 0.0 | 0.00 | 0.61 | 0.03 | 93 | 1012.2 |
| 20260510085004 | 21 | 321 | 0.0 | 0.0 | 0.00 | 0.61 | 0.03 | 94 | 1012.2 |
| 20260510084504 | 21 | 321 | 0.0 | 0.0 | 0.00 | 0.61 | 0.03 | 93 | 1012.1 |
| 20260510084004 | 21 | 321 | 0.0 | 0.0 | 0.00 | 0.61 | 0.03 | 94 | 1012.1 |
| 20260510083504 | 21 | 321 | 0.0 | 0.0 | 0.00 | 0.61 | 0.03 | 93 | 1012.1 |
| 20260510083004 | 21 | 321 | 0.0 | 0.0 | 0.00 | 0.61 | 0.03 | 93 | 1012.0 |
| 20260510082504 | 21 | 321 | 0.0 | 0.0 | 0.00 | 0.61 | 0.03 | 93 | 1011.8 |
| 20260510082004 | 21 | 321 | 0.0 | 0.0 | 0.00 | 0.61 | 0.03 | 93 | 1011.9 |
| 20260510081504 | 21 | 321 | 0.0 | 0.0 | 0.00 | 0.61 | 0.03 | 93 | 1011.9 |
| 20260510081004 | 21 | 321 | 0.0 | 0.0 | 0.00 | 0.61 | 0.03 | 93 | 1011.8 |
| 20260510080504 | 21 | 321 | 0.0 | 0.0 | 0.00 | 0.61 | 0.03 | 93 | 1011.8 |
| 20260510080004 | 21 | 321 | 0.0 | 0.0 | 0.00 | 0.61 | 0.03 | 93 | 1012.0 |
| 20260510075004 | 21 | 321 | 0.0 | 0.0 | 0.00 | 0.61 | 0.03 | 93 | 1012.0 |
| 20260510074504 | 21 | 321 | 0.0 | 0.0 | 0.00 | 0.61 | 0.03 | 93 | 1012.1 |
| 20260510074004 | 21 | 321 | 0.0 | 0.0 | 0.00 | 0.61 | 0.03 | 93 | 1012.0 |
| 20260510073504 | 21 | 321 | 0.0 | 0.0 | 0.00 | 0.61 | 0.03 | 93 | 1012.0 |
| 20260510073004 | 21 | 321 | 0.0 | 0.0 | 0.00 | 0.61 | 0.03 | 93 | 1012.0 |
| 20260510072503 | 21 | 321 | 0.0 | 0.0 | 0.00 | 0.61 | 0.03 | 93 | 1012.1 |
| 20260510072004 | 21 | 321 | 0.0 | 0.0 | 0.00 | 0.61 | 0.03 | 93 | 1012.0 |
| 20260510071504 | 21 | 321 | 0.0 | 0.0 | 0.00 | 0.61 | 0.03 | 93 | 1012.0 |
| 20260510071004 | 21 | 318 | 0.0 | 0.0 | 0.00 | 0.61 | 0.03 | 93 | 1011.9 |
| 20260510070504 | 21 | 175 | 0.0 | 0.0 | 0.00 | 0.64 | 0.03 | 93 | 1011.8 |
| 20260510070004 | 21 | 175 | 0.0 | 0.0 | 0.00 | 0.64 | 0.03 | 93 | 1011.8 |
| 20260510065504 | 21 | 175 | 0.0 | 0.0 | 0.00 | 0.64 | 0.03 | 93 | 1011.7 |
| 20260510065003 | 21 | 175 | 0.0 | 0.0 | 0.00 | 0.64 | 0.03 | 93 | 1011.7 |
| 20260510064505 | 21 | 175 | 0.0 | 0.0 | 0.00 | 0.64 | 0.03 | 93 | 1011.8 |
| 20260510063504 | 21 | 175 | 0.0 | 1.6 | 0.00 | 0.64 | 0.03 | 93 | 1011.9 |
| 20260510063004 | 21 | 175 | 0.0 | 3.2 | 0.00 | 0.64 | 0.03 | 93 | 1012.0 |
| 20260510062004 | 21 | 147 | 0.0 | 4.8 | 0.00 | 0.64 | 0.03 | 93 | 1012.1 |
| 20260510061504 | 21 | 147 | 1.6 | 4.8 | 0.00 | 0.64 | 0.03 | 93 | 1012.1 |
| 20260510061005 | 22 | 171 | 1.6 | 4.8 | 0.00 | 0.64 | 0.03 | 93 | 1012.1 |
| 20260510060504 | 21 | 96 | 1.6 | 3.2 | 0.00 | 0.64 | 0.03 | 93 | 1012.2 |
| 20260510060003 | 21 | 92 | 1.6 | 4.8 | 0.00 | 0.64 | 0.03 | 93 | 1012.2 |
| 20260510055504 | 21 | 161 | 1.6 | 4.8 | 0.00 | 0.64 | 0.03 | 93 | 1012.4 |
| 20260510055004 | 21 | 152 | 1.6 | 4.8 | 0.00 | 0.64 | 0.03 | 93 | 1012.5 |
| 20260510054504 | 21 | 83 | 0.0 | 0.0 | 0.00 | 0.64 | 0.03 | 93 | 1012.5 |
| 20260510054003 | 21 | 138 | 0.0 | 1.6 | 0.03 | 0.64 | 0.03 | 93 | 1012.6 |
| 20260510053504 | 21 | 184 | 0.0 | 4.8 | 0.03 | 0.64 | 0.03 | 93 | 1012.7 |
| 20260510053004 | 21 | 98 | 0.0 | 4.8 | 0.03 | 0.64 | 0.03 | 93 | 1012.7 |
| 20260510052503 | 21 | 174 | 3.2 | 4.8 | 0.03 | 0.64 | 0.03 | 93 | 1012.8 |
| 20260510052005 | 21 | 117 | 0.0 | 3.2 | 0.03 | 0.64 | 0.03 | 93 | 1012.9 |
| 20260510051504 | 21 | 167 | 0.0 | 4.8 | 0.03 | 0.64 | 0.03 | 93 | 1013.0 |
| 20260510051004 | 21 | 189 | 1.6 | 4.8 | 0.03 | 0.64 | 0.03 | 93 | 1013.0 |
| 20260510050503 | 21 | 131 | 1.6 | 4.8 | 0.03 | 0.64 | 0.03 | 93 | 1013.1 |
| 20260510050004 | 21 | 175 | 0.0 | 4.8 | 0.03 | 0.64 | 0.03 | 93 | 1013.3 |
| 20260510045504 | 21 | 176 | 1.6 | 4.8 | 0.03 | 0.64 | 0.03 | 93 | 1013.4 |
| 20260510045004 | 21 | 189 | 0.0 | 4.8 | 0.03 | 0.64 | 0.03 | 93 | 1013.5 |
| 20260510044504 | 21 | 225 | 1.6 | 4.8 | 0.03 | 0.64 | 0.03 | 93 | 1013.5 |
| 20260510043504 | 21 | 155 | 0.0 | 0.0 | 0.00 | 0.61 | 0.00 | 93 | 1013.5 |
| 20260510042504 | 21 | 155 | 0.0 | 0.0 | 0.00 | 0.61 | 0.00 | 93 | 1013.4 |
| 20260510042004 | 21 | 155 | 0.0 | 0.0 | 0.00 | 0.61 | 0.00 | 93 | 1013.3 |
| 20260510041503 | 21 | 155 | 0.0 | 0.0 | 0.00 | 0.61 | 0.00 | 93 | 1013.4 |
| 20260510040505 | 21 | 155 | 0.0 | 0.0 | 0.00 | 0.61 | 0.00 | 93 | 1013.4 |
| 20260510040004 | 21 | 155 | 0.0 | 0.0 | 0.00 | 0.61 | 0.00 | 93 | 1013.4 |
| 20260510035504 | 21 | 155 | 0.0 | 0.0 | 0.00 | 0.61 | 0.61 | 93 | 1013.4 |
| 20260510034504 | 21 | 155 | 0.0 | 0.0 | 0.00 | 0.61 | 0.61 | 93 | 1013.4 |
| 20260510034004 | 21 | 155 | 0.0 | 0.0 | 0.00 | 0.61 | 0.61 | 93 | 1013.3 |
| 20260510033005 | 21 | 155 | 0.0 | 0.0 | 0.00 | 0.61 | 0.61 | 93 | 1013.5 |
| 20260510032504 | 21 | 155 | 0.0 | 0.0 | 0.00 | 0.61 | 0.61 | 93 | 1013.5 |
| 20260510032004 | 21 | 155 | 0.0 | 0.0 | 0.00 | 0.61 | 0.61 | 93 | 1013.5 |
| 20260510031504 | 21 | 155 | 0.0 | 0.0 | 0.00 | 0.61 | 0.61 | 93 | 1013.6 |
| 20260510031004 | 21 | 155 | 0.0 | 0.0 | 0.00 | 0.61 | 0.61 | 93 | 1013.7 |
| 20260510030504 | 21 | 155 | 0.0 | 0.0 | 0.00 | 0.61 | 0.61 | 93 | 1013.5 |
| 20260510030004 | 21 | 155 | 0.0 | 3.2 | 0.00 | 0.61 | 0.61 | 93 | 1013.5 |
| 20260510025004 | 21 | 155 | 1.6 | 3.2 | 0.00 | 0.61 | 0.61 | 93 | 1013.4 |
| 20260510024504 | 21 | 155 | 0.0 | 1.6 | 0.00 | 0.61 | 0.61 | 93 | 1013.3 |
| 20260510024004 | 21 | 155 | 0.0 | 3.2 | 0.00 | 0.61 | 0.61 | 93 | 1013.1 |
| 20260510023504 | 21 | 155 | 0.0 | 3.2 | 0.00 | 0.61 | 0.61 | 93 | 1013.1 |
| 20260510022504 | 21 | 115 | 0.0 | 1.6 | 0.00 | 0.61 | 0.61 | 93 | 1013.0 |
| 20260510022004 | 21 | 115 | 0.0 | 3.2 | 0.00 | 0.61 | 0.61 | 93 | 1012.8 |
| 20260510021005 | 21 | 158 | 0.0 | 3.2 | 0.00 | 0.61 | 0.61 | 93 | 1012.6 |
| 20260510020504 | 21 | 158 | 1.6 | 3.2 | 0.00 | 0.61 | 0.61 | 93 | 1012.5 |
| 20260510020004 | 21 | 148 | 0.0 | 0.0 | 0.00 | 0.61 | 0.61 | 93 | 1012.4 |
| 20260510014503 | 21 | 159 | 0.0 | 0.0 | 0.00 | 0.61 | 0.61 | 93 | 1012.4 |
| 20260510014004 | 21 | 159 | 0.0 | 0.0 | 0.00 | 0.61 | 0.61 | 93 | 1012.3 |
| 20260510013504 | 21 | 159 | 0.0 | 0.0 | 0.00 | 0.61 | 0.61 | 93 | 1012.2 |
| 20260510013004 | 21 | 130 | 0.0 | 0.0 | 0.00 | 0.61 | 0.61 | 93 | 1012.0 |
| 20260510012505 | 21 | 136 | 0.0 | 0.0 | 0.00 | 0.61 | 0.61 | 93 | 1012.0 |
| 20260510011504 | 21 | 136 | 0.0 | 0.0 | 0.00 | 0.61 | 0.61 | 93 | 1011.8 |
| 20260510011003 | 21 | 81 | 0.0 | 0.0 | 0.00 | 0.61 | 0.61 | 93 | 1011.9 |
| 20260510010504 | 21 | 13 | 0.0 | 1.6 | 0.00 | 0.61 | 0.61 | 93 | 1011.9 |
| 20260510010005 | 21 | 13 | 0.0 | 3.2 | 0.00 | 0.61 | 0.61 | 93 | 1011.8 |
| 20260510005004 | 21 | 292 | 0.0 | 3.2 | 0.00 | 0.61 | 0.61 | 93 | 1012.0 |
| 20260510004504 | 21 | 292 | 1.6 | 3.2 | 0.00 | 0.61 | 0.61 | 93 | 1012.0 |
| 20260510004005 | 21 | 214 | 0.0 | 3.2 | 0.00 | 0.61 | 0.61 | 93 | 1012.0 |
| 20260510003504 | 21 | 214 | 1.6 | 4.8 | 0.00 | 0.61 | 0.61 | 93 | 1012.3 |
| 20260510003005 | 21 | 288 | 3.2 | 4.8 | 0.03 | 0.61 | 0.61 | 93 | 1012.0 |
| 20260510002504 | 21 | 263 | 0.0 | 1.6 | 0.03 | 0.61 | 0.61 | 93 | 1011.8 |
| 20260510002004 | 21 | 263 | 0.0 | 1.6 | 0.03 | 0.61 | 0.61 | 93 | 1012.1 |
| 20260510001505 | 21 | 263 | 0.0 | 1.6 | 0.03 | 0.61 | 0.61 | 92 | 1012.1 |
| 20260510001004 | 21 | 263 | 0.0 | 1.6 | 0.03 | 0.61 | 0.61 | 93 | 1012.1 |
| 20260510000504 | 21 | 263 | 0.0 | 1.6 | 0.03 | 0.61 | 0.61 | 92 | 1012.3 |
| 20260509235003 | 22 | 224 | 0.0 | 1.6 | 0.03 | 0.61 | 0.61 | 92 | 1012.5 |
| 20260509234504 | 22 | 325 | 0.0 | 4.8 | 0.03 | 0.61 | 0.61 | 92 | 1012.6 |
| 20260509234003 | 22 | 306 | 1.6 | 4.8 | 0.03 | 0.61 | 0.61 | 92 | 1012.7 |
| 20260509233504 | 22 | 349 | 1.6 | 4.8 | 0.03 | 0.61 | 0.61 | 92 | 1012.5 |
| 20260509233004 | 22 | 330 | 3.2 | 4.8 | 0.00 | 0.58 | 0.58 | 92 | 1012.5 |
| 20260509232504 | 22 | 317 | 0.0 | 4.8 | 0.00 | 0.58 | 0.58 | 92 | 1012.5 |
| 20260509232004 | 22 | 336 | 1.6 | 4.8 | 0.00 | 0.58 | 0.58 | 92 | 1012.4 |
| 20260509231504 | 22 | 322 | 3.2 | 4.8 | 0.00 | 0.58 | 0.58 | 92 | 1012.4 |
| 20260509230504 | 22 | 302 | 1.6 | 4.8 | 0.00 | 0.58 | 0.58 | 92 | 1012.3 |
| 20260509230004 | 22 | 294 | 0.0 | 4.8 | 0.00 | 0.58 | 0.58 | 92 | 1012.2 |
| 20260509225504 | 22 | 303 | 1.6 | 4.8 | 0.00 | 0.58 | 0.58 | 92 | 1012.2 |
| 20260509224504 | 22 | 287 | 1.6 | 4.8 | 0.03 | 0.61 | 0.58 | 92 | 1012.1 |
| 20260509224004 | 22 | 310 | 1.6 | 4.8 | 0.03 | 0.61 | 0.58 | 92 | 1012.2 |
| 20260509223004 | 22 | 298 | 0.0 | 0.0 | 0.03 | 0.66 | 0.58 | 92 | 1012.1 |
| 20260509222504 | 22 | 298 | 0.0 | 1.6 | 0.03 | 0.69 | 0.58 | 92 | 1012.0 |
| 20260509222004 | 22 | 296 | 0.0 | 3.2 | 0.03 | 0.71 | 0.58 | 92 | 1012.1 |
| 20260509221505 | 22 | 294 | 0.0 | 3.2 | 0.03 | 0.76 | 0.58 | 92 | 1012.1 |
| 20260509221004 | 22 | 307 | 0.0 | 3.2 | 0.03 | 0.76 | 0.58 | 92 | 1012.2 |
| 20260509220503 | 22 | 307 | 1.6 | 3.2 | 0.03 | 0.76 | 0.58 | 92 | 1012.1 |
| 20260509220004 | 22 | 308 | 0.0 | 4.8 | 0.03 | 0.76 | 0.58 | 91 | 1012.0 |
| 20260509215503 | 22 | 300 | 1.6 | 4.8 | 0.03 | 0.76 | 0.58 | 91 | 1012.0 |
| 20260509215004 | 22 | 319 | 3.2 | 4.8 | 0.00 | 0.74 | 0.56 | 91 | 1012.0 |
| 20260509214504 | 22 | 296 | 3.2 | 4.8 | 0.00 | 0.74 | 0.56 | 91 | 1012.0 |
| 20260509214004 | 22 | 287 | 1.6 | 3.2 | 0.00 | 0.74 | 0.56 | 91 | 1011.8 |
| 20260509213504 | 22 | 291 | 1.6 | 8.0 | 0.00 | 0.74 | 0.56 | 91 | 1011.8 |
| 20260509213004 | 22 | 317 | 0.0 | 11.3 | 0.00 | 0.74 | 0.56 | 91 | 1011.6 |
| 20260509211504 | 23 | 309 | 0.0 | 11.3 | 0.00 | 0.74 | 0.56 | 91 | 1011.7 |
| 20260509211004 | 23 | 302 | 1.6 | 14.5 | 0.00 | 0.74 | 0.56 | 91 | 1011.6 |
| 20260509210504 | 23 | 317 | 4.8 | 14.5 | 0.00 | 0.74 | 0.56 | 91 | 1011.7 |
| 20260509210004 | 23 | 325 | 4.8 | 14.5 | 0.00 | 0.74 | 0.56 | 90 | 1011.7 |
| 20260509204504 | 23 | 310 | 4.8 | 16.1 | 0.00 | 0.74 | 0.56 | 90 | 1011.5 |
| 20260509204003 | 23 | 344 | 4.8 | 16.1 | 0.00 | 0.74 | 0.56 | 90 | 1011.5 |
| 20260509203504 | 23 | 306 | 4.8 | 16.1 | 0.00 | 0.74 | 0.56 | 90 | 1011.6 |
| 20260509203003 | 23 | 321 | 6.4 | 12.9 | 0.00 | 0.74 | 0.56 | 90 | 1011.6 |
| 20260509202504 | 24 | 350 | 1.6 | 11.3 | 0.03 | 0.74 | 0.56 | 91 | 1011.6 |
| 20260509202004 | 24 | 285 | 3.2 | 11.3 | 0.28 | 0.74 | 0.56 | 91 | 1011.6 |
| 20260509200505 | 23 | 317 | 4.8 | 12.9 | 0.41 | 0.74 | 0.56 | 90 | 1011.4 |
| 20260509195006 | 23 | 0 | 1.6 | 4.8 | 0.41 | 0.74 | 0.56 | 91 | 1011.4 |
| 20260509194506 | 23 | 254 | 1.6 | 4.8 | 0.41 | 0.74 | 0.56 | 90 | 1011.5 |
| 20260509193504 | 23 | 283 | 1.6 | 11.3 | 0.48 | 0.74 | 0.56 | 90 | 1011.5 |
| 20260509192504 | 24 | 244 | 4.8 | 20.9 | 0.51 | 0.71 | 0.53 | 89 | 1011.8 |
| 20260509192005 | 25 | 313 | 11.3 | 20.9 | 0.25 | 0.46 | 0.28 | 89 | 1011.9 |
| 20260509191504 | 25 | 331 | 3.2 | 4.8 | 0.13 | 0.33 | 0.15 | 90 | 1011.8 |
| 20260509190504 | 25 | 331 | 3.2 | 4.8 | 0.13 | 0.33 | 0.15 | 89 | 1011.5 |
| 20260509190004 | 25 | 329 | 0.0 | 0.0 | 0.13 | 0.33 | 0.15 | 89 | 1011.4 |
| 20260509185504 | 25 | 286 | 0.0 | 0.0 | 0.13 | 0.33 | 0.15 | 89 | 1011.6 |
| 20260509185004 | 25 | 282 | 0.0 | 0.0 | 0.13 | 0.33 | 0.15 | 88 | 1011.6 |
| 20260509184504 | 25 | 246 | 0.0 | 0.0 | 0.13 | 0.33 | 0.15 | 87 | 1011.6 |
| 20260509184004 | 26 | 246 | 0.0 | 0.0 | 0.10 | 0.30 | 0.13 | 86 | 1011.5 |
| 20260509183504 | 26 | 246 | 0.0 | 0.0 | 0.05 | 0.25 | 0.08 | 84 | 1011.7 |
| 20260509183004 | 26 | 244 | 0.0 | 3.2 | 0.03 | 0.23 | 0.05 | 83 | 1011.7 |
| 20260509182504 | 26 | 244 | 0.0 | 4.8 | 0.00 | 0.20 | 0.03 | 82 | 1011.7 |
| 20260509182004 | 26 | 284 | 3.2 | 8.0 | 0.00 | 0.20 | 0.03 | 80 | 1011.8 |
| 20260509181003 | 27 | 246 | 3.2 | 4.8 | 0.00 | 0.20 | 0.03 | 77 | 1011.8 |
| 20260509180504 | 27 | 305 | 3.2 | 4.8 | 0.00 | 0.20 | 0.03 | 76 | 1011.9 |
| 20260509180004 | 27 | 248 | 3.2 | 4.8 | 0.00 | 0.20 | 0.03 | 76 | 1011.8 |
| 20260509175504 | 27 | 254 | 1.6 | 4.8 | 0.00 | 0.20 | 0.03 | 76 | 1011.7 |
| 20260509175004 | 27 | 232 | 0.0 | 4.8 | 0.00 | 0.20 | 0.03 | 76 | 1011.8 |
| 20260509174504 | 27 | 196 | 1.6 | 4.8 | 0.00 | 0.20 | 0.03 | 77 | 1011.9 |
| 20260509174004 | 27 | 283 | 1.6 | 12.9 | 0.00 | 0.20 | 0.03 | 76 | 1012.0 |
| 20260509173503 | 27 | 269 | 3.2 | 12.9 | 0.00 | 0.20 | 0.03 | 77 | 1012.0 |
| 20260509173005 | 27 | 294 | 3.2 | 12.9 | 0.00 | 0.20 | 0.03 | 77 | 1012.1 |
| 20260509172004 | 27 | 289 | 1.6 | 4.8 | 0.00 | 0.20 | 0.03 | 77 | 1012.1 |
| 20260509171504 | 27 | 220 | 1.6 | 4.8 | 0.00 | 0.20 | 0.03 | 78 | 1011.9 |
| 20260509171004 | 27 | 90 | 1.6 | 4.8 | 0.00 | 0.20 | 0.03 | 78 | 1011.8 |
| 20260509170504 | 26 | 176 | 3.2 | 4.8 | 0.00 | 0.20 | 0.03 | 78 | 1012.0 |
| 20260509170004 | 26 | 157 | 1.6 | 4.8 | 0.00 | 0.20 | 0.03 | 78 | 1012.0 |
| 20260509165504 | 26 | 179 | 3.2 | 9.7 | 0.00 | 0.20 | 0.03 | 78 | 1012.1 |
| 20260509165005 | 26 | 181 | 3.2 | 9.7 | 0.00 | 0.20 | 0.03 | 78 | 1012.1 |
| 20260509164504 | 26 | 246 | 3.2 | 4.8 | 0.00 | 0.20 | 0.03 | 78 | 1012.2 |
| 20260509163505 | 26 | 166 | 1.6 | 4.8 | 0.00 | 0.20 | 0.03 | 79 | 1012.3 |
| 20260509163004 | 26 | 139 | 3.2 | 4.8 | 0.00 | 0.20 | 0.03 | 81 | 1012.4 |
| 20260509162505 | 26 | 107 | 0.0 | 4.8 | 0.00 | 0.20 | 0.03 | 82 | 1012.2 |
| 20260509162004 | 26 | 107 | 1.6 | 4.8 | 0.00 | 0.20 | 0.03 | 82 | 1012.3 |
| 20260509161505 | 26 | 97 | 1.6 | 4.8 | 0.00 | 0.20 | 0.03 | 81 | 1012.3 |
| 20260509161005 | 25 | 127 | 0.0 | 0.0 | 0.00 | 0.20 | 0.03 | 82 | 1012.4 |
| 20260509160506 | 25 | 127 | 0.0 | 0.0 | 0.00 | 0.20 | 0.03 | 81 | 1012.4 |
| 20260509160004 | 25 | 88 | 0.0 | 0.0 | 0.00 | 0.20 | 0.03 | 81 | 1012.4 |
| 20260509155504 | 25 | 78 | 0.0 | 1.6 | 0.00 | 0.20 | 0.03 | 81 | 1012.7 |
| 20260509155004 | 25 | 80 | 0.0 | 4.8 | 0.00 | 0.20 | 0.03 | 82 | 1012.5 |
| 20260509154503 | 25 | 74 | 1.6 | 4.8 | 0.00 | 0.20 | 0.03 | 82 | 1012.6 |
| 20260509154004 | 25 | 67 | 1.6 | 3.2 | 0.00 | 0.20 | 0.03 | 83 | 1012.5 |
| 20260509153504 | 25 | 105 | 1.6 | 3.2 | 0.00 | 0.20 | 0.03 | 84 | 1012.4 |
| 20260509153004 | 25 | 88 | 0.0 | 4.8 | 0.00 | 0.20 | 0.03 | 85 | 1012.3 |
| 20260509152003 | 25 | 94 | 0.0 | 4.8 | 0.00 | 0.20 | 0.03 | 84 | 1012.2 |
| 20260509151503 | 25 | 106 | 3.2 | 4.8 | 0.00 | 0.20 | 0.03 | 84 | 1012.4 |
| 20260509151004 | 25 | 89 | 1.6 | 4.8 | 0.00 | 0.20 | 0.03 | 84 | 1012.4 |
| 20260509150504 | 25 | 179 | 1.6 | 4.8 | 0.00 | 0.20 | 0.03 | 84 | 1012.4 |
| 20260509150004 | 25 | 53 | 0.0 | 4.8 | 0.00 | 0.20 | 0.03 | 85 | 1012.4 |
| 20260509145004 | 25 | 307 | 1.6 | 3.2 | 0.00 | 0.20 | 0.03 | 84 | 1012.7 |
| 20260509144504 | 25 | 293 | 1.6 | 3.2 | 0.00 | 0.20 | 0.03 | 85 | 1012.7 |
| 20260509144004 | 25 | 99 | 1.6 | 3.2 | 0.00 | 0.20 | 0.03 | 86 | 1012.4 |
| 20260509143504 | 24 | 289 | 1.6 | 3.2 | 0.00 | 0.20 | 0.03 | 86 | 1012.4 |
| 20260509143004 | 24 | 130 | 1.6 | 4.8 | 0.00 | 0.20 | 0.03 | 87 | 1012.4 |
| 20260509142503 | 23 | 186 | 0.0 | 4.8 | 0.00 | 0.20 | 0.03 | 87 | 1012.4 |
| 20260509142004 | 23 | 155 | 3.2 | 4.8 | 0.00 | 0.20 | 0.03 | 86 | 1012.3 |
| 20260509141504 | 23 | 278 | 1.6 | 4.8 | 0.00 | 0.20 | 0.03 | 87 | 1012.4 |
| 20260509141005 | 23 | 215 | 1.6 | 4.8 | 0.00 | 0.20 | 0.03 | 87 | 1012.3 |
| 20260509140504 | 23 | 123 | 3.2 | 4.8 | 0.00 | 0.20 | 0.03 | 87 | 1012.2 |
| 20260509140005 | 23 | 157 | 3.2 | 4.8 | 0.00 | 0.20 | 0.03 | 88 | 1012.2 |
| 20260509135504 | 23 | 202 | 1.6 | 4.8 | 0.00 | 0.20 | 0.03 | 88 | 1012.6 |
| 20260509135003 | 23 | 198 | 1.6 | 4.8 | 0.00 | 0.20 | 0.03 | 88 | 1012.8 |
| 20260509134504 | 23 | 229 | 1.6 | 4.8 | 0.00 | 0.20 | 0.03 | 89 | 1012.8 |
| 20260509134004 | 23 | 240 | 1.6 | 4.8 | 0.00 | 0.20 | 0.03 | 89 | 1012.7 |
| 20260509133504 | 22 | 228 | 3.2 | 4.8 | 0.00 | 0.20 | 0.03 | 89 | 1012.7 |
| 20260509133005 | 22 | 258 | 3.2 | 4.8 | 0.00 | 0.20 | 0.03 | 90 | 1012.6 |
| 20260509132505 | 22 | 307 | 3.2 | 4.8 | 0.00 | 0.20 | 0.03 | 90 | 1012.5 |
| 20260509132005 | 22 | 248 | 1.6 | 4.8 | 0.00 | 0.20 | 0.03 | 90 | 1012.3 |
| 20260509131504 | 22 | 198 | 1.6 | 4.8 | 0.00 | 0.20 | 0.03 | 90 | 1012.1 |
| 20260509130004 | 22 | 188 | 3.2 | 14.5 | 0.00 | 0.20 | 0.03 | 91 | 1012.0 |
| 20260509125504 | 22 | 159 | 3.2 | 14.5 | 0.00 | 0.20 | 0.03 | 91 | 1012.0 |
| 20260509125003 | 22 | 171 | 3.2 | 8.0 | 0.00 | 0.20 | 0.03 | 91 | 1012.0 |
| 20260509124504 | 21 | 213 | 3.2 | 8.0 | 0.00 | 0.20 | 0.03 | 92 | 1011.9 |
| 20260509124003 | 21 | 252 | 1.6 | 4.8 | 0.00 | 0.20 | 0.03 | 92 | 1011.9 |
| 20260509123004 | 21 | 204 | 1.6 | 3.2 | 0.00 | 0.20 | 0.03 | 92 | 1011.7 |
| 20260509122503 | 21 | 154 | 0.0 | 3.2 | 0.00 | 0.20 | 0.03 | 93 | 1011.6 |
| 20260509121003 | 20 | 203 | 0.0 | 3.2 | 0.00 | 0.20 | 0.03 | 93 | 1011.5 |
| 20260509120503 | 20 | 148 | 0.0 | 3.2 | 0.00 | 0.20 | 0.03 | 93 | 1011.5 |
| 20260509115505 | 20 | 190 | 0.0 | 9.7 | 0.00 | 0.20 | 0.03 | 93 | 1011.4 |
| 20260509115004 | 20 | 194 | 4.8 | 9.7 | 0.00 | 0.20 | 0.03 | 93 | 1011.4 |
| 20260509114505 | 20 | 170 | 4.8 | 9.7 | 0.00 | 0.20 | 0.03 | 93 | 1011.3 |
| 20260509113004 | 19 | 189 | 1.6 | 9.7 | 0.00 | 0.20 | 0.03 | 93 | 1011.1 |
| 20260509112504 | 19 | 165 | 3.2 | 9.7 | 0.00 | 0.20 | 0.03 | 93 | 1011.1 |
| 20260509112004 | 19 | 175 | 3.2 | 9.7 | 0.00 | 0.20 | 0.03 | 93 | 1011.2 |
| 20260509111004 | 18 | 179 | 3.2 | 9.7 | 0.00 | 0.20 | 0.03 | 93 | 1011.0 |
| 20260509110504 | 18 | 156 | 3.2 | 8.0 | 0.00 | 0.20 | 0.03 | 93 | 1011.0 |
| 20260509110004 | 18 | 186 | 3.2 | 8.0 | 0.00 | 0.20 | 0.03 | 93 | 1010.9 |
| 20260509105504 | 18 | 178 | 3.2 | 4.8 | 0.00 | 0.20 | 0.03 | 93 | 1010.8 |